Weather History for Saltillo, Mexico

Change the Weather History Date:

Friday, January 11, 2013

  Actual Average Record
Temperature  
Mean Temperature 61 °F -  
Max Temperature 71 °F 64 °F 77 °F (2000)
Min Temperature 51 °F 44 °F 33 °F (2011)
Degree Days  
Heating Degree Days 4    
Growing Degree Days 11 (Base 50)    
Moisture  
Dew Point 43 °F    
Average Humidity 39    
Maximum Humidity 66    
Minimum Humidity 16    
Precipitation  
Precipitation 0.00 in - - ()
Sea Level Pressure  
Sea Level Pressure 29.96 in    
Wind  
Wind Speed 12 mph ()    
Max Wind Speed 29 mph    
Max Gust Speed -    
Visibility 9.1 miles    
Events      
Averages and records for this station are not official NWS values.
T = Trace of Precipitation, MM = Missing Value Source: Averaged Metar Reports

Daily Weather History Graph

Daily Weather History Graph

Search for Another Location

Airport:

Trip Planner

Search our weather history database for the weather conditions in past years. The results will help you decide how hot, cold, wet, or windy it might be!

Date:

Astronomy

Jan. 11, 2013 Rise Set
Actual Time 7:31 AM CST 6:12 PM CST
Civil Twilight 7:06 AM CST 6:37 PM CST
Nautical Twilight 6:38 AM CST 7:05 PM CST
Astronomical Twilight 6:10 AM CST 7:33 PM CST
Moon 7:10 AM CST (1/11) 6:26 PM CST (1/11)
Length of Visible Light 11h 30m
Length of Day
10h 40m
Waning Crescent, 0% of the Moon is Illuminated
Jan 11
Waning Crescent
Jan 11
New
Jan 18
First Quarter
Jan 26
Full
Feb 3
Last Quarter

Hourly Weather History & Observations

Time (CST) Temp. Heat Index Dew Point Humidity Pressure Visibility Wind Dir Wind Speed Gust Speed Precip Events Conditions
12:40 AM 50.0 °F - 39.2 °F 66% 30.10 in 10.0 mi South 9.2 mph - N/A   Clear
2:30 AM 56 °F - 32 °F 28% 29.94 in 3 mi SW 8.9 mph - -   Haze
5:35 AM 60 °F - 29 °F 19% 29.90 in 3 mi SSW 13.4 mph - -   Haze
5:40 AM 62.6 °F - 44.6 °F 52% 30.02 in 10.0 mi South 9.2 mph - N/A   Clear
6:40 AM 62.6 °F - 44.6 °F 52% 30.03 in 10.0 mi South 9.2 mph - N/A   Scattered Clouds
7:40 AM 62.6 °F - 48.2 °F 59% 30.05 in 10.0 mi South 13.8 mph - N/A   Mostly Cloudy
8:30 AM 60 °F - 33 °F 24% 29.91 in 10 mi South 13.4 mph - -   Haze
8:40 AM 64.4 °F - 42.8 °F 45% 30.08 in 10.0 mi South 17.3 mph - N/A   Scattered Clouds
9:40 AM 73.4 °F - 50.0 °F 44% 30.10 in 10.0 mi SSW 6.9 mph - N/A   Scattered Clouds
10:40 AM 73.4 °F - 50.0 °F 44% 30.09 in 10.0 mi South 17.3 mph - N/A   Mostly Cloudy
11:30 AM 66 °F - 31 °F 16% 29.88 in 11 mi South 15.7 mph - -   Haze
11:40 AM 77.0 °F - 51.8 °F 41% 30.06 in 10.0 mi South 20.7 mph - N/A   Mostly Cloudy
12:40 PM 77.0 °F - 55.4 °F 47% 30.02 in 10.0 mi SSW 17.3 mph - N/A   Mostly Cloudy
1:40 PM 80.6 °F 80.3 °F 53.6 °F 39% 30.00 in 10.0 mi SW 17.3 mph - N/A   Scattered Clouds
2:30 PM 65 °F - 36 °F 23% 29.80 in 12 mi SSW 8.9 mph - -   Scattered Clouds
2:40 PM 80.6 °F 80.3 °F 53.6 °F 39% 29.97 in 10.0 mi South 28.8 mph - N/A   Mostly Cloudy
3:40 PM 77.0 °F - 48.2 °F 36% 29.96 in 10.0 mi South 23.0 mph - N/A   Mostly Cloudy
4:40 PM 75.2 °F - 48.2 °F 38% 29.96 in 10.0 mi South 11.5 mph - N/A   Mostly Cloudy
5:30 PM 64 °F - 33 °F 20% 29.74 in 10 mi SSW 4.5 mph - -   Haze
5:40 PM 71.6 °F - 44.6 °F 38% 29.96 in 10.0 mi South 17.3 mph - N/A   Mostly Cloudy
6:40 PM 68.0 °F - 42.8 °F 40% 29.98 in 10.0 mi South 6.9 mph - N/A   Mostly Cloudy
7:40 PM 64.4 °F - 42.8 °F 45% 29.98 in 10.0 mi South 9.2 mph - N/A   Mostly Cloudy
8:30 PM 61 °F - 34 °F 24% 29.75 in 3 mi South 13.4 mph - -   Partly Cloudy
8:40 PM 64.4 °F - 42.8 °F 45% 29.96 in 10.0 mi South 11.5 mph - N/A   Scattered Clouds
9:40 PM 64.4 °F - 42.8 °F 45% 29.96 in 10.0 mi South 11.5 mph - N/A   Clear
10:40 PM 62.6 °F - 42.8 °F 48% 29.96 in 10.0 mi South 17.3 mph - N/A   Clear
11:30 PM 61 °F - 34 °F 25% 29.77 in 3 mi SSW 15.7 mph - -   Partly Cloudy
11:40 PM 62.6 °F - 42.8 °F 48% 29.98 in 10.0 mi South 17.3 mph - N/A   Clear